Regional Weather Roundup
Issued by NWS Sterling, VA

Home | Current Version | Previous Version | Graphics & Text | Print | Product List | Glossary On
Versions: 1 2 3 4 5 6 7 8 9 10 11 12 13 14 15 16 17 18 19 20 21 22 23 24 25 26 27 28 29 30 31 32 33 34 35 36 37 38 39 40 41 42 43 44 45 46 47 48 49 50
521
ASUS41 KLWX 302110
RWRLWX

REGIONAL WEATHER ROUNDUP
NATIONAL WEATHER SERVICE BALTIMORE MD/WASHINGTON DC
500 PM EDT THU MAR 30 2017

Note: "FAIR" indicates few or no clouds below 12,000 feet
with no significant weather and/or obstructions to visibility.
 TC=TEMPERATURE CELSIUS

 * =Non NWS site. Station does not report precipitation (e.g. rain,
    snow, etc.), thunder, or fog.

DCZ001-MDZ009-015-VAZ040>042-051-053>054-302200-
WASHINGTON METRO

CITY           SKY/WX    TMP DP  RH WIND       PRES   REMARKS
WASHINGTON NAT CLOUDY    54  35  48 SE8       30.11F
DULLES         CLOUDY    52  32  46 SE10G17   30.09F
ANDREWS AFB    CLOUDY    52  35  51 E9        30.09F
FT BELVOIR     CLOUDY    54  34  47 SE7       30.10F
QUANTICO       CLOUDY    54  42  64 SE13      30.11F
COLLEGE PARK*  CLOUDY    52  35  52 SE7       30.12S
LEESBURG*      CLOUDY    54  34  47 S9        30.09F
MANASSAS*      CLOUDY    54  37  52 SE9       30.09F

$$

MDZ006>007-011-014-302200-
BALTIMORE METRO

CITY           SKY/WX    TMP DP  RH WIND       PRES   REMARKS
BWI AIRPORT    CLOUDY    50  34  54 SE9       30.13S
MD SCIENCE CTR   N/A     50  30  46 MISG      30.14F
MARTIN STATE   CLOUDY    48  34  57 E3        30.17S
ANNAPOLIS      CLOUDY    49  38  65 SE8       30.15R
FORT MEADE*    CLOUDY    50  34  53 SE9       30.15S

$$

MDZ012-015-019>023-302200-
MARYLAND EASTERN SHORE

CITY           SKY/WX    TMP DP  RH WIND       PRES   REMARKS
OCEAN CITY     CLOUDY    46  33  60 SE6       30.18F
SALISBURY      CLOUDY    49  36  61 SE12      30.15F
BAY BRIDGE AP* CLOUDY    48  36  61 W3        30.16R
CAMBRIDGE*     CLOUDY    52  39  62 S5G12     30.15R
EASTON*        CLOUDY    54  37  54 W5        30.17F

$$

MDZ017>025-302200-
SOUTHERN MARYLAND

CITY           SKY/WX    TMP DP  RH WIND       PRES   REMARKS
PATUXENT RIVER CLOUDY    49  42  77 SE12      30.14S
ST INIGOES     CLOUDY    50  39  66 SE7       30.14R
LEONARDTOWN*   CLOUDY    50  37  62 SE8       30.15R

$$

MDZ003>005-302200-
NORTH CENTRAL MARYLAND

CITY           SKY/WX    TMP DP  RH WIND       PRES   REMARKS
FREDERICK*     CLOUDY    54  37  54 SE6       30.11F
HAGERSTOWN APT CLOUDY    51  32  48 SE15      30.04F
WESTMINSTER*   CLOUDY    48  30  49 SE14      30.07F

$$

MDZ501>502-302200-
WESTERN MARYLAND

CITY           SKY/WX    TMP DP  RH WIND       PRES   REMARKS
OAKLAND*       MOSUNNY   46  36  66 SE20G31   29.89S
CUMBERLAND*    CLOUDY    55  34  44 SE13G18   30.02S

$$

VAZ025>031-302200-
SHENANDOAH VALLEY

CITY           SKY/WX    TMP DP  RH WIND       PRES   REMARKS
WINCHESTER*    CLOUDY    50  34  53 SE10G18   30.03F
FRONT ROYAL*   CLOUDY    54  36  50 SE7       30.02F
LURAY*         CLOUDY    54  41  62 CALM      30.02F
NEW MARKET*    CLOUDY    53  37  53 S5        30.01F
STAUNTON*      CLOUDY    53  38  56 S7        30.04F
WAYNESBORO*    CLOUDY    51  39  64 SE9G17    30.02F

$$

WVZ021-048>050-054>055-302200-
EASTERN WEST VIRGINIA PANHANDLE

CITY           SKY/WX    TMP DP  RH WIND       PRES   REMARKS
MARTINSBURG    CLOUDY    52  33  48 SE15G22   30.02F
PETERSBURG*    CLOUDY    57  42  57 SE14      29.96S

$$

VAZ036>039-050-302200-
CENTRAL FOOTHILLS

CITY           SKY/WX    TMP DP  RH WIND       PRES   REMARKS
CHARLOTTESVILL CLOUDY    56  35  45 S6        30.05F
CULPEPER*      CLOUDY    56  36  46 S5        30.07F
ORANGE*        CLOUDY    54  34  47 CALM      30.07F
GORDONSVILLE*  CLOUDY    55  36  50 SE7       30.05F
WARRENTON*     CLOUDY    57  30  35 S8        30.07F

$$

VAZ055>057-302200-
NORTH AND CENTRAL PIEDMONT

CITY           SKY/WX    TMP DP  RH WIND       PRES   REMARKS
FREDERICKSBRG* CLOUDY    55  42  61 E9        30.08F
STAFFORD*      CLOUDY    54  40  60 E8        30.13F

$$

NCZ024-NYZ072-PAZ021-071-VAZ022-071-302200-
OTHER REGIONAL OBSERVATIONS

CITY           SKY/WX    TMP DP  RH WIND       PRES   REMARKS
NEW YORK CITY  CLOUDY    48  28  46 S12G17    30.15F
PHILADELPHIA   CLOUDY    49  27  42 SW12      30.16F
PITTSBURGH     CLOUDY    54  43  66 E10       29.82F
ROANOKE        CLOUDY    54  43  66 SE8       30.03F
RICHMOND       CLOUDY    56  43  61 E8        30.09F
RALEIGH        CLOUDY    65  45  48 SE12      30.03F

$$

ANZ530>537-302200-
MARINE OBSERVATIONS

STATION/POSITION TIME  TEMP    WIND        PRES
                       AIR SEA DIR/SP/G
                 (UTC) (F)     (DEG/KT/KT) (MB)
THOMAS PT LIGHT  2100   48 47  140/  5/  6   N/A
BALT KEY BRIDGE  2048   47     110/  8/  9 1020.9R
COVE POINT       2048   48     190/ 12/ 14 1021.3F
LEWISETTA        2048   50 54  170/  9/ 12 1020.5R
SOLOMONS ISLAND  2048   49 49  140/ 11/ 13   N/A
PINEY POINT      2048          150/ 14/ 15   N/A

$$





USA.gov is the U.S. government's official web portal to all federal, state and local government web resources and services.